Flag for Canada Weather past 2 weeks in Calgary, Alberta, Canada

Now
70 °F

Scattered clouds.


Feels Like: 70 °F
Forecast: 50 / 70 °F
Wind: 3 mph from North

Location: Calgary International

Current Time: Jul 28, 2015 at 2:16:00 PM

Latest Report: Jul 28, 2015 at 1:00 PM


Visibility: 40 mi

Pressure: 30.04 "Hg (26.55 "Hg at 1063m altitude)

Humidity: 33%

Dew point: 39 °F

Location of CalgaryLocation

Historic Weather in Calgary — Graph

°F

Calgary temperature yesterday

Maximum temperature yesterday: 64 °F (at 5:00 PM)
Minimum temperature yesterday: 45 °F (at 5:00 AM)
Average temperature yesterday: 55 °F

Past Weeks' High & Low Weather Summary

 TemperatureHumidityPressure
High82 °F (Jul 18, 5:00 PM)94% (Jul 23, 5:00 AM)30.09 "Hg (Jul 23, 5:00 AM)
Low45 °F (Jul 27, 5:00 AM)21% (Jul 24, 6:00 PM)29.63 "Hg (Jul 21, 7:00 PM)
Average63 °F60%29.90 "Hg
* Reported Jul 13 1:00 PM — Jul 28 1:00 PM, Calgary, Weather by CustomWeather, © 2015

Note: Actual official high and low records may vary slightly from our data, if they occured in-between our weather recording intervals... More about our weather records

Advertising

Calgary weather history for previous 24 hours

 ConditionsComfort  
Time TempWeatherWind HumidityBarometerVisibility
1:00 PM
Tue, Jul 28
70 °FScattered clouds.3 mph33%30.04 "Hg40 mi
12:00 PM66 °FPartly sunny.8 mph37%30.05 "Hg40 mi
11:00 AM64 °FScattered clouds.14 mph40%30.06 "Hg40 mi
10:00 AM63 °FPartly sunny.17 mph42%30.08 "Hg40 mi
9:00 AM61 °FPartly sunny.15 mph48%30.08 "Hg40 mi
8:00 AM57 °FPartly sunny.17 mph51%30.08 "Hg40 mi
7:00 AM55 °FPassing clouds.18 mph51%30.06 "Hg40 mi
6:00 AM52 °FPassing clouds.9 mph62%30.06 "Hg40 mi
5:00 AM54 °FPassing clouds.10 mph58%30.04 "Hg15 mi
4:00 AM54 °FPassing clouds.8 mph58%30.04 "Hg15 mi
3:00 AM48 °FClear.2 mph71%30.06 "Hg15 mi
2:00 AM54 °FClear.8 mph58%30.04 "Hg15 mi
1:00 AM54 °FPassing clouds.5 mph63%30.04 "Hg15 mi
12:00 AM54 °FPassing clouds.2 mph63%30.02 "Hg15 mi
11:00 PM
Mon, Jul 27
55 °FPassing clouds.3 mph63%30.03 "Hg15 mi
10:00 PM57 °FScattered clouds.5 mph63%30.04 "Hg40 mi
9:00 PM57 °FScattered clouds.6 mph63%30.05 "Hg40 mi
8:00 PM59 °FScattered showers. Broken clouds.13 mph63%30.06 "Hg40 mi
7:00 PM64 °FCloudy.12 mph46%30.04 "Hg30 mi
6:00 PM63 °FCloudy.13 mph45%30.04 "Hg30 mi
5:00 PM64 °FCloudy.13 mph49%30.01 "Hg30 mi
4:00 PM63 °FCloudy.14 mph52%30.01 "Hg30 mi
3:00 PM63 °FBroken clouds.18 mph49%30.01 "Hg30 mi
2:00 PM59 °FSprinkles. Mostly cloudy.8 mph63%30.02 "Hg30 mi
Weather by CustomWeather, © 2015

See weather overviewHow to use our weather pages